Location: �pinac
(46.9892°N, 4.5233°E)
Time: 16:19:14
(UTC+00:00)

Daily predictions for brighter satellites

Satellite Brightness Start Highest point End
(mag) Time Altitude Azimuth Time Altitude Azimuth Time Altitude Azimuth
SPOT 3 Rocket 3.7 19:52:52 10° SSE 19:58:01 81° WSW 20:03:13 10° NNW
STARLINK-1076 3.7 19:55:27 10° WNW 19:59:37 77° NNE 20:03:45 10° ESE
Cosmos 1975 3.2 19:56:50 10° N 20:00:49 51° ENE 20:04:45 10° SSE
NOSS 2-3 (C) 3.8 19:56:45 10° SSW 20:00:53 52° ESE 20:05:42 10° NE
Cosmos 1190 Rocket 4.1 19:55:53 10° NNW 20:01:06 69° ENE 20:06:19 10° SSE
Cosmos 2278 Rocket 2.9 19:57:15 10° SSE 20:02:14 32° ESE 20:07:14 10° NE
STARLINK-1206 3.7 19:58:33 10° SW 20:02:34 53° SE 20:06:37 10° ENE
Cosmos 614 Rocket 4.1 19:58:54 10° NNW 20:04:00 76° WSW 20:09:05 10° SSE
Cosmos 2034 Rocket 4.2 19:57:57 10° NNW 20:04:09 76° W 20:10:16 10° S
STARLINK-1092 3.7 20:00:24 10° WNW 20:04:34 81° NNE 20:08:42 10° ESE
Cosmos 1624 Rocket 4.2 20:00:06 10° S 20:05:16 54° ESE 20:10:28 10° NNE
Cosmos 1140 Rocket 3.6 20:00:23 10° NNW 20:05:35 68° ENE 20:10:47 10° SSE
USA 245 4.1 20:03:10 10° SE 20:06:05 26° ENE 20:08:34 10° NNE
Cosmos 1844 Rocket 3.5 20:01:47 10° SW 20:07:22 58° WNW 20:12:58 10° NNE
STARLINK-1205 3.7 20:03:29 10° SW 20:07:32 57° SE 20:11:37 10° ENE
Okean 1 3.4 20:04:55 10° S 20:08:58 89° E 20:13:02 10° N
STARLINK-1080 3.7 20:05:26 10° WNW 20:09:36 87° NNE 20:13:45 10° ESE
H-2A R/B 4.1 20:05:31 10° SSW 20:09:39 26° W 20:13:54 10° NW
STARLINK-1218 3.6 20:08:24 10° SW 20:12:29 61° SE 20:16:35 10° ENE
Meteor 1-19 Rocket 4.3 20:07:34 10° S 20:13:06 66° E 20:18:50 10° NNE
Resurs 01 Rocket 1.7 20:10:02 10° SSE 20:14:29 86° WSW 20:18:59 10° NNW
STARLINK-1090 3.6 20:10:22 10° WNW 20:14:32 88° SSW 20:18:42 10° ESE
Cosmos 1782 Rocket 3.6 20:11:26 10° N 20:15:56 86° ENE 20:20:25 10° S
Meteor 1-4 Rocket 2.7 20:12:42 10° S 20:16:02 48° E 20:19:23 10° NNE
Sich 1 Rocket 3.8 20:11:53 10° N 20:16:26 59° ENE 20:20:57 10° SSE
STARLINK-1254 3.6 20:13:21 10° SW 20:17:28 66° SE 20:21:35 10° ENE
Cosmos 1515 3.7 20:14:16 10° S 20:18:03 68° E 20:21:51 10° NNE
STARLINK-1089 3.6 20:15:22 10° WNW 20:19:31 83° SSW 20:23:30 11° SE
Cosmos 1371 Rocket 4.0 20:14:32 10° SSW 20:19:48 80° ESE 20:25:02 10° NNE
Abrixas rocket 2.1 20:18:01 10° W 20:20:58 72° N 20:23:55 10° ENE
STARLINK-1231 3.5 20:18:19 10° SW 20:22:26 71° SSE 20:26:34 10° ENE
Cosmos 1703 Rocket 3.9 20:18:47 10° SSW 20:23:05 69° W 20:27:25 10° N
ATLAS CENTAUR R/B 3.6 20:22:28 10° W 20:24:25 18° NNW 20:25:54 10° NNE
STARLINK-1107 3.6 20:20:21 10° WNW 20:24:30 78° SSW 20:28:17 12° SE
ERS-1 Rocket 3.9 20:20:15 10° SE 20:24:43 34° ENE 20:29:14 10° N
STARLINK-1212 3.7 20:21:48 10° WSW 20:24:52 55° NNW 20:27:56 10° NE
ISS -2.8 20:21:37 10° WNW 20:24:53 46° NNE 20:28:10 10° E
STARLINK-1234 4.1 20:22:07 10° W 20:25:12 45° NNW 20:28:18 10° NE
STARLINK-1105 3.7 20:22:16 10° WSW 20:25:20 54° NNW 20:28:23 10° NE
Meteor 1-18 Rocket 4.3 20:20:18 10° SSW 20:25:52 84° W 20:31:34 10° N
STARLINK-1247 3.7 20:23:09 10° WSW 20:26:12 54° NNW 20:29:18 10° NE
STARLINK-1227 3.7 20:23:36 10° WSW 20:26:40 53° NNW 20:29:43 10° NE
Cosmos 2279 Rocket 4.4 20:20:55 10° N 20:26:58 49° ENE 20:32:41 11° SSE
Cosmos 1954 Rocket 4.1 20:22:02 10° NNW 20:27:18 69° ENE 20:32:15 12° SSE
STARLINK-1232 3.5 20:23:16 10° SW 20:27:25 77° SSE 20:31:33 10° ENE
STARLINK-1226 3.7 20:24:31 10° WSW 20:27:34 53° NNW 20:30:39 10° NE
STARLINK-1215 3.8 20:25:25 10° WSW 20:28:28 52° NNW 20:31:32 10° NE
STARLINK-1066 3.7 20:25:22 10° WNW 20:29:30 73° SSW 20:33:06 13° SE
Terra 3.3 20:26:08 10° ESE 20:29:53 24° ENE 20:33:39 10° N
STARLINK-1217 3.8 20:27:14 10° W 20:30:17 51° NNW 20:33:20 10° NE
Okean 2 Rocket 3.4 20:25:58 10° N 20:30:18 50° ENE 20:34:09 12° SSE
STARLINK-1229 3.9 20:28:06 10° W 20:31:10 50° NNW 20:34:13 10° NE
STARLINK-1072 4.4 20:27:35 10° WNW 20:31:37 48° NNE 20:35:38 10° E
STARLINK-1270 3.9 20:29:02 10° W 20:32:04 50° NNW 20:35:08 10° NE
STARLINK-1208 3.5 20:28:15 10° SW 20:32:23 82° SSE 20:36:33 10° ENE
STARLINK-1189 3.9 20:30:50 10° W 20:33:52 48° NNW 20:36:55 10° NE
STARLINK-1081 3.7 20:30:20 10° WNW 20:34:27 68° SSW 20:37:52 15° SE
STARLINK-1209 4.4 20:31:26 10° W 20:34:31 40° NNW 20:37:36 10° NE
STARLINK-1188 4.0 20:31:46 10° W 20:34:48 48° NNW 20:37:51 10° NE
STARLINK-1235 4.3 20:32:33 10° W 20:35:31 41° NNW 20:38:29 10° NE
Spot 2 Rocket 3.5 20:30:35 10° SSE 20:35:36 77° ENE 20:40:40 10° NNW
STARLINK-1187 4.1 20:32:56 10° W 20:35:54 43° NNW 20:38:53 10° NE
Lacrosse 5 2.3 20:31:14 10° NW 20:36:14 58° NNE 20:41:04 11° ESE
STARLINK-1096 4.4 20:32:35 10° WNW 20:36:38 50° NNE 20:40:40 10° E
STARLINK-1191 4.0 20:34:14 10° W 20:37:14 46° NNW 20:40:16 10° NE
STARLINK-1271 3.6 20:33:12 10° WSW 20:37:21 87° SE 20:41:31 10° ENE
STARLINK-1221 4.0 20:35:07 10° W 20:38:08 46° NNW 20:41:10 10° NE
Meteor 1-12 Rocket 4.4 20:32:57 10° N 20:38:35 63° ENE 20:43:39 13° SSE
COSMOS 2406 3.4 20:32:50 10° NNW 20:38:37 75° WSW 20:44:03 12° SSE
STARLINK-1222 4.1 20:36:02 10° W 20:39:02 45° NNW 20:42:03 10° NE
STARLINK-1070 3.8 20:35:19 10° WNW 20:39:25 63° SW 20:42:38 16° SE
STARLINK-1214 4.1 20:36:58 10° W 20:39:59 45° NNW 20:43:00 10° NE
Cosmos 1544 3.6 20:36:31 10° NNW 20:40:06 57° W 20:43:39 10° S
MetOp-B 4.2 20:36:08 10° SSE 20:41:29 80° WSW 20:46:52 10° NNW
Cosmos 676 Rocket 4.0 20:36:15 10° NNW 20:41:31 90° WSW 20:46:14 13° SSE
STARLINK-1079 4.3 20:37:34 10° WNW 20:41:38 52° NNE 20:45:42 10° E
STARLINK-1154 3.6 20:38:11 10° WSW 20:42:21 88° NNW 20:46:30 10° ENE
SAR-Lupe-2 3.6 20:39:02 10° NNE 20:42:36 60° E 20:46:10 10° S
Meteor 2-4 Rocket 3.6 20:37:20 10° S 20:42:41 72° E 20:48:02 10° NNE
Cosmos 371 Rocket 3.8 20:39:08 10° S 20:43:37 39° ESE 20:48:09 10° NE
Cosmos 2151 Rocket 4.0 20:39:23 10° N 20:43:48 49° ENE 20:47:15 16° SSE
Cosmos 1634 Rocket 4.1 20:37:59 10° N 20:44:19 83° W 20:50:39 10° S
STARLINK-1069 3.9 20:40:18 10° WNW 20:44:22 58° SW 20:47:25 17° SE
STARLINK-1243 4.4 20:41:16 10° SSW 20:44:52 29° SE 20:48:28 10° ENE
SL-4 R/B 2.0 20:43:07 10° NNW 20:46:12 43° NE 20:48:05 18° ESE
STARLINK-1116 4.2 20:42:32 10° WNW 20:46:38 55° NNE 20:50:40 10° E
STARLINK-1197 3.7 20:43:09 10° WSW 20:47:18 83° NNW 20:51:28 10° ENE
Cosmos 2056 Rocket 3.8 20:43:08 10° SSW 20:48:14 70° WNW 20:53:22 10° NNE
STARLINK-1085 4.0 20:45:19 10° WNW 20:49:22 54° SW 20:52:13 18° SE
Meteor 1-13 Rocket 4.4 20:44:23 10° S 20:49:49 56° E 20:55:23 10° NNE
STARLINK-1236 4.3 20:46:09 10° SSW 20:49:50 32° SE 20:53:32 10° ENE
STARLINK-1198 3.8 20:48:10 10° WSW 20:52:18 78° NNW 20:56:28 10° ENE
STARLINK-1086 4.1 20:50:18 10° WNW 20:54:18 49° SW 20:56:59 19° SSE
Crew Dragon 0.7 20:54:24 10° NW 20:56:26 45° NNE 20:57:34 21° E
STARLINK-1094 4.0 20:52:31 10° WNW 20:56:38 60° NNE 21:00:15 13° ESE
STARLINK-1199 3.8 20:53:08 10° WSW 20:57:16 74° NNW 21:01:26 10° ENE
STARLINK-1095 4.2 20:55:19 10° WNW 20:59:17 46° SW 21:01:47 20° SSE
STARLINK-1269 4.1 20:55:53 10° SSW 20:59:42 37° SE 21:03:32 10° ENE
IGS 5A 3.6 20:57:51 14° S 21:01:20 72° WSW 21:05:30 10° NNW
STARLINK-1117 3.9 20:57:29 10° WNW 21:01:37 64° NNE 21:05:01 15° ESE
STARLINK-1210 3.9 20:58:09 10° WSW 21:02:16 70° NNW 21:06:25 10° ENE
STARLINK-1077 4.3 21:00:18 10° WNW 21:04:14 42° SW 21:06:34 21° SSE
CARTOSAT-1 3.6 21:01:34 19° SSE 21:04:32 67° ENE 21:08:51 10° N
STARLINK-1200 4.0 21:00:48 10° SSW 21:04:41 40° SE 21:08:34 10° ENE
STARLINK-1078 3.9 21:02:28 10° WNW 21:06:37 67° NNE 21:09:48 16° ESE
BREEZE M DEB (TANK) 2.9 21:01:01 10° SW 21:06:55 48° SSE 21:09:24 10° E
STARLINK-1219 4.0 21:03:08 10° WSW 21:07:15 66° NNW 21:11:23 10° ENE
Okean 3 3.8 21:03:03 10° SSW 21:07:20 68° W 21:11:39 10° N
STARLINK-1075 4.4 21:05:19 10° WNW 21:09:11 39° SW 21:11:20 22° SSE
STARLINK-1192 3.9 21:05:43 10° SSW 21:09:38 43° SE 21:13:35 10° ENE
STARLINK-1108 3.8 21:07:26 10° WNW 21:11:36 71° NNE 21:14:35 18° ESE
Cosmos 2082 Rocket 2.2 21:06:20 10° NNW 21:12:06 83° ENE 21:16:03 21° SSE
STARLINK-1211 4.1 21:08:08 10° WSW 21:12:15 62° NNW 21:16:22 10° ENE
SPOT 5 3.1 21:10:01 20° SSE 21:13:41 77° ENE 21:19:01 10° N
STARLINK-1244 3.8 21:10:37 10° SW 21:14:36 47° SE 21:18:35 10° ENE
Cosmos 1833 Rocket 3.0 21:10:50 10° NNW 21:16:21 59° WSW 21:20:27 18° S
STARLINK-1071 3.7 21:12:25 10° WNW 21:16:35 75° NNE 21:19:22 20° ESE
Cosmos 1461 3.8 21:15:49 25° SE 21:16:57 28° ESE 21:20:40 10° NE
STARLINK-1245 4.2 21:13:08 10° WSW 21:17:14 59° NNW 21:21:21 10° ENE
Cosmos 1452 Rocket 3.5 21:13:43 10° SSW 21:18:59 81° ESE 21:24:18 10° NNE
STARLINK-1138 3.7 21:15:32 10° SW 21:19:32 51° SE 21:23:34 10° ENE
STARLINK-1110 3.6 21:16:30 10° WNW 21:20:40 79° NNE 21:23:16 22° ESE
Cosmos 1378 4.3 21:20:31 24° ESE 21:21:27 27° E 21:24:39 10° NNE
STARLINK-1233 4.3 21:18:08 10° W 21:22:13 56° NNW 21:26:19 10° ENE
Cosmos 1300 Rocket 4.2 21:18:41 10° NNW 21:23:02 54° W 21:26:24 16° SSW
USA 215 4.0 21:17:20 10° E 21:23:38 52° NNE 21:29:56 10° NW
Cosmos 1420 Rocket 4.3 21:18:34 10° SSW 21:23:45 67° WNW 21:28:56 10° NNE
Aureole 2 Rocket 3.1 21:24:15 29° ESE 21:24:20 29° ESE 21:27:04 10° NE
STARLINK-1143 3.6 21:20:27 10° SW 21:24:30 55° SE 21:28:33 10° ENE
STARLINK-1124 3.6 21:22:21 10° WNW 21:26:32 85° NNE 21:28:55 25° ESE
Cosmos 2369 Rocket 3.9 21:26:15 14° ESE 21:27:09 15° E 21:30:13 10° ENE
STARLINK-1204 4.4 21:23:10 10° W 21:27:14 54° NNW 21:31:19 10° ENE
Cosmos 304 Rocket 4.0 21:24:47 23° SSE 21:27:27 47° ESE 21:32:04 10° NNE
STARLINK-1203 3.6 21:24:02 10° SW 21:28:10 60° SE 21:32:19 10° ENE
STARLINK-1241 3.6 21:25:24 10° SW 21:29:28 60° SE 21:33:34 10° ENE
Cosmos 1805 4.0 21:26:27 10° N 21:30:08 38° ENE 21:31:34 27° ESE
Cosmos 1943 Rocket 3.4 21:28:55 20° ESE 21:30:12 22° E 21:34:20 10° NE
STARLINK-1122 3.5 21:27:21 10° WNW 21:31:31 90° NNE 21:33:42 27° ESE
SL-8 R/B 3.9 21:26:59 10° W 21:31:49 75° N 21:36:39 10° E
STARLINK-1239 3.5 21:30:21 10° SW 21:34:26 64° SE 21:38:33 10° ENE
Cosmos 1066 Rocket 4.1 21:31:09 21° S 21:34:48 69° E 21:40:09 10° NNE
ERBS 2.8 21:32:29 10° WSW 21:35:44 58° NW 21:39:01 10° NE
STARLINK-1126 3.5 21:32:22 10° WNW 21:36:32 85° SSW 21:38:32 30° SE
Cosmos 332 Rocket 3.8 21:32:39 12° SSW 21:37:08 89° ESE 21:42:04 10° NNE
STARLINK-1240 3.5 21:35:18 10° SW 21:39:25 69° SE 21:43:33 10° ENE
Cosmos 1674 Rocket 3.6 21:36:52 19° SSW 21:39:53 76° W 21:44:18 10° N
STARLINK-1082 3.5 21:37:18 10° WNW 21:41:28 80° SSW 21:43:15 33° SE
Meteor 1-15 Rocket 4.4 21:36:33 10° NNW 21:42:31 83° W 21:46:14 24° S
CENTAUR R/B 4.2 21:35:56 10° NW 21:43:06 39° NNE 21:51:03 10° E
STARLINK-1216 3.5 21:40:15 10° SW 21:44:22 75° SSE 21:48:31 10° ENE
Cosmos 972 Rocket 4.5 21:40:09 19° S 21:44:37 71° ESE 21:51:20 10° NNE
NOSS 2-2 (E) 3.6 21:45:11 37° SE 21:45:21 37° ESE 21:49:01 10° NE
Cosmos 1378 Rocket 3.5 21:43:25 24° S 21:46:02 86° WNW 21:50:27 10° N
Cosmos 2278 Rocket 3.3 21:40:44 10° SW 21:46:09 45° NW 21:51:37 10° NNE
STARLINK-1100 3.5 21:42:18 10° WNW 21:46:27 75° SSW 21:48:03 36° SE
NOSS 8 (E) 4.0 21:47:09 25° SW 21:48:52 88° ESE 21:51:55 10° NE
STARLINK-1237 3.5 21:45:12 10° SW 21:49:21 80° SSE 21:53:30 10° ENE
Cosmos 2026 Rocket 4.5 21:48:12 26° SE 21:51:15 45° E 21:57:12 10° NNE
STARLINK-1083 3.6 21:47:15 10° WNW 21:51:23 69° SSW 21:52:48 39° SE
deb Kosmos-1763 3.9 21:47:53 10° NNW 21:51:31 82° ENE 21:52:28 47° SSE
Cosmos 1741 Rocket 4.3 21:46:44 10° NNW 21:51:53 60° WSW 21:54:36 27° S
STARLINK-1084 4.4 21:49:33 10° WNW 21:53:36 49° NNE 21:56:49 15° E
STARLINK-1202 3.5 21:50:12 10° WSW 21:54:20 85° SSE 21:58:30 10° ENE
Cosmos 1437 Rocket 3.7 21:53:11 16° SW 21:55:52 42° WNW 21:59:32 10° N
STARLINK-1125 3.6 21:52:16 10° WNW 21:56:23 64° SW 21:57:36 42° SSE
Abrixas rocket 2.0 21:53:39 10° WNW 21:56:36 74° N 21:57:11 52° ENE
Okean 2 3.8 21:56:17 38° SE 21:57:19 47° E 22:01:20 10° NNE
STARLINK-1098 4.3 21:54:32 10° WNW 21:58:36 51° NNE 22:01:37 17° E
Cosmos 1975 Rocket 3.5 21:57:35 35° SE 21:58:52 46° E 22:03:07 10° NNE
SeaSat 1 2.7 21:54:50 10° NE 21:59:38 49° ESE 22:01:27 33° SSE
STARLINK-1109 3.7 21:57:15 10° WNW 22:01:20 60° SW 22:02:23 44° SSE
ISS -3.5 21:58:27 10° WNW 22:01:44 48° SSW 22:01:47 48° SSW
ERS-1 Rocket 4.2 22:00:14 17° SSW 22:03:29 34° W 22:08:05 10° NNW
STARLINK-1123 4.3 21:59:31 10° WNW 22:03:36 54° NNE 22:06:24 19° E
STARLINK-1246 3.6 22:00:08 10° WSW 22:04:17 85° NNW 22:08:27 10° ENE
Nadezhda 4 Rocket 4.1 22:00:38 19° SSW 22:05:14 72° W 22:11:23 10° N
STARLINK-1091 3.8 22:02:14 10° WNW 22:06:18 55° SW 22:07:09 45° S
Terra 2.5 22:04:56 25° SSW 22:07:20 47° W 22:11:58 10° NNW
STARLINK-1097 4.2 22:04:30 10° WNW 22:08:35 56° NNE 22:11:10 21° E
NOSS 2-2 (C) 3.2 22:08:29 50° SE 22:08:36 51° SE 22:12:24 10° NE
STARLINK-1224 3.7 22:05:07 10° WSW 22:09:16 80° NNW 22:13:26 10° ENE
ATLAS 2AS CENTAUR R/B 4.1 22:08:00 22° SE 22:09:55 24° ESE 22:15:56 10° ENE
STARLINK-1072 3.8 22:07:14 10° WNW 22:11:16 51° SW 22:11:55 45° S
Cosmos 1242 Rocket 3.8 22:11:39 27° E 22:11:39 27° E 22:14:46 10° NNE
Cosmos 1110 Rocket 3.9 22:08:57 24° SSW 22:12:06 89° W 22:17:19 10° NNE
STARLINK-1099 4.1 22:09:29 10° WNW 22:13:35 59° NNE 22:15:57 24° E
STARLINK-1225 3.7 22:10:06 10° WSW 22:14:15 75° NNW 22:18:24 10° ENE
NOSS 3-2 (A) 4.2 22:08:08 10° NW 22:15:32 70° NE 22:21:24 21° SE
STARLINK-1096 3.9 22:12:15 10° WNW 22:16:14 47° SW 22:16:43 44° SSW
BREEZE-M DEB (TANK) 3.4 22:12:25 10° W 22:16:25 61° N 22:20:10 10° E
STARLINK-1104 4.0 22:14:26 10° WNW 22:18:33 62° NNE 22:20:42 26° E
Cosmos 1766 3.4 22:14:37 10° NNW 22:18:35 69° W 22:19:37 46° SSW
SL-4 R/B 3.8 22:17:31 10° W 22:18:52 12° WSW 22:18:54 12° WSW
Lacrosse 5 2.7 22:14:28 10° WNW 22:19:02 35° SW 22:20:16 30° SSW
STARLINK-1230 3.8 22:15:06 10° WSW 22:19:14 71° NNW 22:23:23 10° ENE
BREEZE-M DEB (TANK) 3.5 22:04:39 10° WSW 22:19:26 84° SSE 22:23:15 10° ENE
Spot 4 4.0 22:17:50 37° SE 22:19:39 63° ENE 22:24:28 10° N
Cosmos 1271 Rocket 4.0 22:20:18 26° E 22:20:21 26° E 22:23:37 10° NE
Okean 1 Rocket 4.2 22:16:28 10° NNW 22:20:37 37° W 22:22:37 24° SW
STARLINK-1079 4.0 22:17:16 10° WNW 22:21:12 43° SW 22:21:31 42° SSW
STARLINK-1144 3.9 22:19:26 10° WNW 22:23:34 66° NNE 22:25:30 29° E
USA 238 DEB 3.9 22:16:58 10° NW 22:24:10 75° NE 22:28:52 25° SE
STARLINK-1243 3.9 22:20:05 10° WSW 22:24:13 67° NNW 22:28:21 10° ENE
USA 238 4.0 22:17:03 10° NW 22:24:16 74° NE 22:28:59 25° SE
EXPRESS MD2 4.0 22:21:24 10° WSW 22:25:20 84° SSE 22:33:40 10° ENE
Cosmos 1733 3.2 22:22:00 10° NNW 22:25:50 73° W 22:26:32 55° SSW
STARLINK-1116 4.2 22:22:15 10° WNW 22:26:09 40° SW 22:26:17 40° SW
STARLINK-1103 3.8 22:24:25 10° WNW 22:28:34 70° NNE 22:30:17 33° E
Cosmos 1707 4.0 22:28:29 28° E 22:28:37 28° E 22:31:58 10° NNE
SL-4 R/B 3.2 22:29:44 18° NNE 22:29:44 18° NNE 22:30:40 10° NNE
STARLINK-1236 4.0 22:25:07 10° WSW 22:29:14 64° NNW 22:33:21 10° ENE
Cosmos 1455 Rocket 2.9 22:27:11 10° N 22:31:33 85° ENE 22:32:36 51° SSE
Cosmos 1953 3.8 22:30:03 10° NNE 22:33:24 25° ENE 22:34:15 23° E
Cosmos 1486 Rocket 4.3 22:28:11 10° NNW 22:33:27 58° ENE 22:35:35 34° SE
STARLINK-1101 3.7 22:29:23 10° WNW 22:33:33 74° NNE 22:35:04 37° ESE
Cosmos 1331 Rocket 4.2 22:30:41 23° SW 22:33:53 66° WNW 22:39:04 10° NNE
Cosmos 1025 Rocket 3.7 22:34:49 35° ESE 22:35:20 37° E 22:39:18 10° NNE
STARLINK-1094 4.5 22:32:18 10° WNW 22:35:52 34° SW 22:35:52 34° SW
COSMOS 2455 4.5 22:35:47 17° ESE 22:36:16 17° ESE 22:40:01 10° ENE
STARLINK-1102 3.6 22:34:22 10° WNW 22:38:32 78° NNE 22:39:51 42° ESE
STARLINK-1269 4.2 22:35:06 10° WSW 22:39:11 57° NNW 22:43:17 10° ENE
Cosmos 1302 Rocket 3.9 22:37:48 39° S 22:39:48 77° ESE 22:45:08 10° NNE
STARLINK-1111 3.6 22:39:21 10° WNW 22:43:30 83° NNE 22:44:38 47° ESE
Cosmos 1758 3.5 22:39:45 10° N 22:43:46 61° ENE 22:44:24 53° ESE
STARLINK-1200 4.3 22:40:08 10° W 22:44:13 55° NNW 22:48:17 10° ENE
Cosmos 2297 4.4 22:39:18 11° SW 22:44:33 51° WNW 22:50:09 10° NNE
Cosmos 1092 Rocket 4.4 22:41:43 23° SSW 22:45:28 57° WNW 22:51:32 10° N
STARLINK-1073 3.5 22:44:20 10° WNW 22:48:29 88° NNE 22:49:25 53° ESE
Meteor 2-13 Rocket 4.4 22:45:42 33° SSW 22:48:40 82° W 22:54:52 10° N
Cosmos 1900 4.3 22:43:53 10° NW 22:48:54 74° WSW 22:50:19 47° SSE
STARLINK-1192 4.4 22:45:09 10° W 22:49:12 52° NNW 22:53:17 10° ENE
Aureole 3 Rocket 4.0 22:45:58 10° N 22:51:29 87° W 22:54:52 35° S
STARLINK-1121 3.5 22:49:18 10° WNW 22:53:28 87° SSW 22:54:11 60° SE
Cosmos 2082 Rocket 4.2 22:51:59 10° WNW 22:55:26 17° W 22:57:54 13° SW
Cosmos 1461 4.3 22:52:06 11° WSW 22:55:55 38° NW 23:00:03 10° NNE
EO 1 Del DPAF 3.9 22:54:19 10° N 22:57:58 47° WNW 22:58:54 38° WSW
SL-4 R/B 4.0 22:59:59 21° ESE 22:59:59 21° ESE 23:02:11 10° E
STARLINK-1106 3.5 22:54:17 10° WNW 22:58:26 82° SSW 22:58:58 66° SE
Cosmos 1536 Rocket 3.6 22:57:54 52° SE 22:58:30 57° E 23:02:46 10° NNE
SL-27 R/B 2.4 22:55:59 10° NNW 22:59:33 74° WSW 22:59:33 74° WSW
ATLAS 5 CENTAUR R/B 2.9 23:00:58 25° ENE 23:00:58 25° ENE 23:02:01 10° ENE
Cosmos 1470 2.6 22:56:41 10° NNW 23:00:35 75° W 23:00:55 68° SW
Meteor 2-8 Rocket 4.5 22:55:14 10° N 23:01:23 75° E 23:03:50 39° SSE
ALOS 2 2.5 23:01:01 56° SSE 23:01:55 80° ENE 23:06:20 10° N
Thor Agena Rocket 4.1 22:57:21 10° N 23:02:32 55° WNW 23:05:14 27° SW
STARLINK-1112 3.4 22:59:17 10° WNW 23:03:26 76° SSW 23:03:46 70° SSE
APEX 4.5 23:01:32 39° S 23:03:50 60° ESE 23:09:25 10° NE
USA 215 3.2 23:03:20 33° SE 23:06:32 70° SW 23:13:04 10° NW
Cosmos 1544 Rocket 3.8 23:03:20 10° NNW 23:07:35 55° W 23:08:21 48° SW
STARLINK-1128 3.4 23:04:16 10° WNW 23:08:24 71° SW 23:08:33 70° SSW
Cosmos 1992 Rocket 4.2 23:08:31 46° SSE 23:09:39 56° ESE 23:14:46 10° NNE
Cosmos 2369 Rocket 2.1 23:08:00 37° SSW 23:10:21 89° WNW 23:16:03 10° NNE
COSMOS 2487 4.0 23:08:14 10° N 23:11:15 27° ENE 23:11:49 25° E
STARLINK-1113 3.5 23:09:15 10° WNW 23:13:19 66° SW 23:13:19 66° SW
Cosmos 1943 Rocket 2.5 23:10:23 27° SW 23:13:25 64° WNW 23:19:00 10° NNE
SL-8 R/B 3.6 23:09:37 10° WNW 23:14:23 64° SSW 23:15:04 56° SSE
S3M 3.9 23:10:39 10° N 23:16:49 85° W 23:19:11 41° S
Cosmos 2292 Rocket 3.6 23:17:52 52° ESE 23:18:10 53° E 23:21:42 10° NNE
STARLINK-1119 3.7 23:14:14 10° WNW 23:18:06 60° SW 23:18:06 60° SW
NOSS 3-2 (C) 4.0 23:14:20 10° NW 23:21:53 82° SW 23:26:35 30° SSE
Cosmos 1655 Rocket 3.9 23:20:26 39° S 23:22:56 87° W 23:29:14 10° N
STARLINK-1114 3.8 23:19:13 10° WNW 23:22:52 53° WSW 23:22:52 53° WSW
ATLAS CENTAUR R/B 2.8 23:25:24 26° ESE 23:25:24 26° ESE 23:28:22 10° ENE
Cosmos 1726 2.0 23:21:55 10° N 23:25:39 82° E 23:25:42 81° E
STARLINK-1130 (DARKSAT) 4.0 23:24:14 10° WNW 23:27:40 47° WSW 23:27:40 47° WSW
NOSS 3-4 (A) 3.5 23:29:50 43° S 23:31:32 58° ESE 23:37:43 10° NE
NOSS 3-4 (C) 3.5 23:29:57 43° S 23:31:39 58° ESE 23:37:49 10° NE
Landsat 4 3.7 23:28:52 10° NNE 23:32:31 62° E 23:32:31 62° E
ATLAS 3B R/B 3.1 23:26:00 10° NW 23:32:42 59° NE 23:38:47 14° ESE
STARLINK-1084 4.2 23:29:13 10° WNW 23:32:26 42° WSW 23:32:26 42° WSW
Cosmos 1606 Rocket 4.1 23:29:57 10° N 23:34:09 47° ENE 23:35:04 40° ESE
CENTAUR R/B 3.1 23:26:35 10° NW 23:34:39 80° SW 23:39:47 28° SSE
SeaSat 1 4.1 23:32:41 10° N 23:36:57 30° NW 23:41:11 10° WSW
STARLINK-1212 4.4 23:34:34 10° NW 23:37:29 36° NNE 23:38:54 23° ENE
STARLINK-1105 4.4 23:35:01 10° NW 23:37:56 36° NNE 23:39:21 23° ENE
STARLINK-1098 4.4 23:34:13 10° WNW 23:37:14 37° WSW 23:37:14 37° WSW
STARLINK-1234 4.1 23:35:08 10° NW 23:38:14 43° NNE 23:39:05 34° ENE
STARLINK-1247 4.4 23:35:54 10° NW 23:38:50 37° NNE 23:40:16 23° ENE
STARLINK-1227 4.4 23:36:21 10° NW 23:39:17 37° NNE 23:40:35 24° ENE
RESURS DK-1 4.3 23:39:42 18° E 23:39:42 18° E 23:42:18 10° ENE
STARLINK-1226 4.4 23:37:15 10° NW 23:40:12 37° NNE 23:41:34 24° ENE
STARLINK-1215 4.3 23:38:08 10° NW 23:41:06 37° NNE 23:42:26 24° ENE
Cosmos 292 Rocket 4.4 23:39:18 33° WSW 23:41:08 51° WNW 23:45:54 10° NNE
STARLINK-1217 4.3 23:39:57 10° NW 23:42:55 38° NNE 23:44:10 25° ENE
Meteor 2-5 Rocket 4.4 23:41:51 33° SE 23:43:34 43° E 23:48:49 10° NNE
STARLINK-1229 4.3 23:40:49 10° NW 23:43:47 38° NNE 23:45:02 26° ENE
STARLINK-1270 4.3 23:41:44 10° NW 23:44:42 39° NNE 23:45:55 26° ENE
Cosmos 1242 Rocket 4.4 23:45:39 20° W 23:46:29 22° WNW 23:49:25 10° NNW
STARLINK-1189 4.2 23:43:31 10° NW 23:46:30 39° NNE 23:47:37 28° ENE
STARLINK-1188 4.2 23:44:27 10° NW 23:47:26 40° NNE 23:48:32 28° ENE
YAOGAN 11 4.0 23:46:53 62° S 23:47:34 79° WSW 23:51:56 10° NNW
STARLINK-1209 3.7 23:44:54 10° NW 23:48:04 51° NNE 23:48:28 47° NE
STARLINK-1235 3.8 23:45:07 10° NW 23:48:08 46° NNE 23:48:26 44° NE
STARLINK-1187 4.0 23:45:32 10° NW 23:48:31 43° NNE 23:49:05 38° NE
Cosmos 2263 4.4 23:46:07 32° SW 23:48:40 64° WNW 23:54:16 10° NNE
STARLINK-1191 4.1 23:46:54 10° NW 23:49:53 41° NNE 23:50:47 31° ENE
STARLINK-1221 4.1 23:47:47 10° NW 23:50:46 41° NNE 23:51:40 32° ENE
Cosmos 1626 3.7 23:50:51 25° E 23:51:03 25° E 23:54:08 10° NE
STARLINK-1222 4.1 23:48:41 10° NW 23:51:40 42° NNE 23:52:32 32° ENE
Cosmos 1300 4.4 23:48:52 10° NNE 23:52:05 25° ENE 23:53:09 22° E
STARLINK-1214 4.1 23:49:37 10° NW 23:52:37 42° NNE 23:53:26 33° ENE
Helios 1A 3.2 23:52:18 50° WSW 23:52:39 52° W 23:56:46 10° NNW
Cosmos 1503 Rocket 4.2 23:47:50 10° NNW 23:53:01 55° WSW 23:54:13 45° SSW
Cosmos 1656 Rocket 3.7 23:51:32 40° SW 23:53:39 80° WNW 23:59:17 10° NNE
BREEZE-M DEB (TANK) 4.2 23:56:49 10° E 23:56:49 10° E 23:56:50 10° E
Cosmos 1271 Rocket 4.3 23:55:25 23° W 23:56:17 25° WNW 23:59:35 10° NNW
